Tracking 22124 objects as of 25-Jan-2021
HD Live streaming from Space Station
objects crossing your sky now

STARLINK 1031

Track STARLINK 1031 now!
10-day predictions
STARLINK 1031 is classified as:


NORAD ID: 44736
Int'l Code: 2019-074Z
Perigee: 552.7 km
Apogee: 555.9 km
Inclination: 53.1 °
Period: 95.6 minutes
Semi major axis: 6925 km
RCS: Unknown
Launch date: November 11, 2019
Source: United States (US)
Launch site: AIR FORCE EASTERN TEST RANGE (AFETR)
aabbcc
Your satellite tracking list
Your tracking list is empty




NASA's NSSDC Master Catalog

Two Line Element Set (TLE):
1 44736U 19074Z   21024.77450576  .00000776  00000-0  71004-4 0  9991
2 44736  53.0590 320.9648 0002327  67.5814 292.5422 15.06406907 66630
Source of the keplerian elements: AFSPC